OE5XFR Weather Reports


time (UTC)temp
C
wind
direction
speed
KPH
gust
KPH
rain 1hr
cm
rain 24hr
cm
rain mn
cm
humidity
%
barometer
mb
20260507052116 10 264 6.4 11.3 0.00 0.51 0.51 75 1013.0
20260507050914 10 254 3.2 9.7 0.00 0.51 0.51 77 1013.0
20260507045715 10 259 4.8 8.0 0.00 0.51 0.51 74 1013.0
20260507044515 10 242 4.8 11.3 0.00 0.51 0.51 74 1013.0
20260507043315 10 256 8.0 12.9 0.00 0.51 0.51 74 1013.0
20260507042114 9 242 9.7 14.5 0.00 0.51 0.51 75 1013.0
20260507040914 9 228 11.3 14.5 0.00 0.51 0.51 79 1013.0
20260507035714 8 254 11.3 14.5 0.00 0.51 0.51 90 1012.0
20260507034515 8 254 11.3 14.5 0.00 0.51 0.51 90 1012.0
20260507033315 8 269 6.4 9.7 0.00 0.51 0.51 92 1013.0
20260507032114 8 77 1.6 4.8 0.00 0.51 0.51 92 1013.0
20260507030914 8 37 4.8 6.4 0.00 0.51 0.51 91 1013.0
20260507025715 8 274 4.8 9.7 0.00 0.51 0.51 89 1012.0
20260507024514 8 274 4.8 9.7 0.00 0.51 0.51 89 1012.0
20260507023314 8 268 8.0 12.9 0.00 0.51 0.51 88 1012.0
20260507022114 9 251 8.0 14.5 0.00 0.51 0.51 88 1012.0
20260507020914 8 259 9.7 14.5 0.00 0.51 0.51 90 1012.0
20260507015714 8 251 14.5 16.1 0.00 0.51 0.51 90 1012.0
20260507014514 8 254 12.9 16.1 0.00 0.51 0.51 90 1012.0
20260507013315 8 240 12.9 17.7 0.00 0.51 0.51 90 1012.0
20260507012114 8 241 12.9 17.7 0.00 0.51 0.51 90 1012.0
20260507010914 8 241 12.9 16.1 0.00 0.51 0.51 90 1012.0
20260507005714 8 252 14.5 17.7 0.00 0.51 0.51 89 1012.0
20260507004514 8 252 14.5 17.7 0.00 0.51 0.51 89 1012.0
20260507003318 9 252 11.3 14.5 0.00 0.51 0.51 87 1012.0
20260507002114 9 234 12.9 12.9 0.00 0.51 0.51 86 1012.0
20260507000915 10 251 9.7 14.5 0.00 0.51 0.51 82 1012.0
20260506235714 10 247 14.5 16.1 0.00 0.51 0.51 81 1012.0
20260506234514 10 247 14.5 16.1 0.00 0.51 0.51 81 1012.0
20260506233314 10 237 12.9 19.3 0.00 0.51 0.51 82 1012.0
20260506232114 10 237 14.5 24.1 0.00 0.51 0.51 80 1012.0
20260506230915 10 239 14.5 22.5 0.00 0.51 0.51 85 1012.0
20260506225714 10 242 17.7 24.1 0.00 0.51 0.51 88 1011.0
20260506224514 10 242 14.5 24.1 0.00 0.51 0.51 87 1011.0
20260506223315 10 244 19.3 24.1 0.00 0.51 0.51 90 1011.0
20260506222114 10 244 19.3 24.1 0.00 0.51 0.51 90 1011.0
20260506220914 10 242 16.1 27.4 0.03 0.51 0.51 90 1011.0
20260506215714 10 258 22.5 30.6 0.03 0.51 0.51 91 1011.0
20260506214515 10 237 17.7 24.1 0.03 0.51 0.51 91 1011.0
20260506213314 10 248 12.9 25.7 0.00 0.48 0.48 92 1011.0
20260506212114 10 246 20.9 25.7 0.00 0.48 0.48 93 1011.0
20260506210914 10 246 14.5 22.5 0.00 0.48 0.48 92 1011.0
20260506205714 11 256 30.6 35.4 0.15 0.46 0.46 92 1011.0
20260506204514 11 256 30.6 35.4 0.15 0.46 0.46 92 1011.0
20260506203314 11 267 19.3 24.1 0.10 0.41 0.41 94 1011.0
20260506202114 11 250 20.9 27.4 0.05 0.33 0.33 94 1011.0
20260506200914 11 258 16.1 24.1 0.00 0.28 0.28 93 1010.0
20260506195714 12 270 24.1 32.2 0.20 0.23 0.23 93 1010.0
20260506194515 12 270 24.1 32.2 0.20 0.23 0.23 93 1010.0
20260506193314 12 259 20.9 29.0 0.15 0.18 0.18 92 1009.0
20260506192115 12 260 24.1 27.4 0.10 0.13 0.13 92 1009.0
20260506190915 12 258 12.9 20.9 0.00 0.03 0.03 90 1009.0
20260506185716 13 249 20.9 32.2 0.00 0.00 0.00 89 1008.0
20260506184515 13 251 25.7 37.0 0.00 0.00 0.00 88 1008.0
20260506183314 13 239 22.5 37.0 0.00 0.00 0.00 84 1007.0
20260506182115 13 247 29.0 38.6 0.00 0.00 0.00 77 1007.0
20260506180914 14 242 24.1 37.0 0.00 0.00 0.00 56 1007.0
20260506175714 15 241 25.7 32.2 0.00 0.00 0.00 52 1006.0
20260506174515 15 241 25.7 32.2 0.00 0.00 0.00 52 1006.0
20260506173314 17 268 24.1 59.5 0.00 0.00 0.00 42 1005.0
20260506172114 21 280 54.7 66.0 0.00 0.00 0.00 32 1004.0
20260506170915 21 193 11.3 19.3 0.00 0.00 0.00 29 1003.0
20260506165714 21 128 6.4 16.1 0.00 0.05 0.00 32 1004.0
20260506164515 21 128 6.4 16.1 0.00 0.05 0.00 32 1004.0
20260506163314 21 78 12.9 25.7 0.00 0.05 0.00 33 1004.0
20260506162513 21 74 16.1 24.1 0.00 0.05 0.00 33 1004.0
20260506160914 21 100 22.5 27.4 0.00 0.05 0.00 32 1004.0
20260506155715 22 73 12.9 30.6 0.00 0.05 0.00 32 1004.0
20260506154515 22 69 19.3 32.2 0.00 0.05 0.00 32 1004.0
20260506153314 22 70 19.3 29.0 0.00 0.05 0.00 34 1004.0
20260506152115 21 14 19.3 32.2 0.00 0.05 0.00 35 1005.0
20260506150914 21 22 8.0 29.0 0.00 0.05 0.00 36 1005.0
20260506145714 21 69 14.5 27.4 0.00 0.05 0.00 36 1005.0
20260506144514 21 60 16.1 29.0 0.00 0.05 0.00 37 1005.0
20260506143315 21 46 17.7 27.4 0.00 0.05 0.00 37 1005.0
20260506142114 20 53 14.5 24.1 0.00 0.05 0.00 38 1005.0
20260506140915 20 74 17.7 27.4 0.00 0.05 0.00 39 1006.0
20260506135715 20 21 11.3 27.4 0.00 0.05 0.00 38 1006.0
20260506134516 20 21 11.3 27.4 0.00 0.05 0.00 38 1006.0
20260506133315 20 32 24.1 24.1 0.00 0.05 0.00 41 1006.0
20260506132115 20 53 6.4 25.7 0.00 0.05 0.00 39 1006.0
20260506130915 20 72 20.9 22.5 0.00 0.05 0.00 38 1006.0
20260506125716 20 86 14.5 24.1 0.00 0.05 0.00 40 1006.0
20260506124515 20 73 24.1 29.0 0.00 0.05 0.00 39 1006.0
20260506123315 20 27 9.7 27.4 0.00 0.05 0.00 41 1006.0
20260506122117 19 40 12.9 25.7 0.00 0.05 0.00 40 1007.0
20260506120916 18 91 19.3 24.1 0.00 0.05 0.00 42 1007.0
20260506115715 18 67 17.7 22.5 0.00 0.05 0.00 44 1007.0
20260506114516 18 83 19.3 29.0 0.00 0.05 0.00 47 1007.0
20260506113315 18 74 16.1 22.5 0.00 0.05 0.00 46 1007.0
20260506112115 17 74 17.7 20.9 0.00 0.05 0.00 47 1008.0
20260506110915 17 68 17.7 17.7 0.00 0.05 0.00 48 1008.0
20260506105715 17 70 8.0 25.7 0.00 0.05 0.00 47 1008.0
20260506104515 17 70 8.0 25.7 0.00 0.05 0.00 47 1008.0
20260506103316 17 99 6.4 22.5 0.00 0.05 0.00 52 1008.0
20260506100915 16 68 17.7 20.9 0.00 0.05 0.00 53 1008.0
20260506095715 16 76 9.7 22.5 0.00 0.05 0.00 52 1009.0
20260506094514 16 76 9.7 22.5 0.00 0.05 0.00 52 1009.0
20260506093314 16 71 12.9 17.7 0.00 0.05 0.00 53 1009.0
20260506092115 16 90 9.7 19.3 0.00 0.05 0.00 53 1009.0
20260506090914 16 58 14.5 20.9 0.00 0.05 0.00 49 1009.0
20260506085714 16 66 11.3 19.3 0.00 0.05 0.00 48 1008.0
20260506084515 16 74 11.3 22.5 0.00 0.05 0.00 48 1008.0
20260506083314 16 75 16.1 19.3 0.00 0.05 0.00 52 1009.0
20260506082114 16 121 16.1 16.1 0.00 0.05 0.00 52 1009.0
20260506080914 15 66 9.7 17.7 0.00 0.05 0.00 59 1009.0
20260506073316 13 55 8.0 11.3 0.00 0.05 0.00 70 1009.0
20260506072116 13 67 9.7 9.7 0.00 0.05 0.00 76 1009.0
20260506070916 12 76 8.0 9.7 0.00 0.05 0.00 88 1009.0
20260506062115 11 82 1.6 3.2 0.00 0.05 0.05 94 1009.0
20260506060917 10 129 1.6 3.2 0.00 0.05 0.05 94 1009.0